CZ-4 DEB, 26181

Orbit data source: Space-Track

CZ-4 DEB, 26181 is space debris in SSO originally from a launch on Thu, 14 Oct 1999 UTC launched from the Taiyaun Space Center, China (TSC). Debris objects in space refer to the collection of defunct objects orbiting the Earth. Examples of debris include non-operational satellites, rocket bodies, and fragments generated from explosions, collisions, or faulty payload assembly.

Loading next visibility...
Identifier
26181, 1999-057BT
Orbit
SSO
Country
Flag of CNCN / PRC
Related business
Manufacturer
Unknown
Mission
Spacecraft
Bus & Motor
Unknown
Mass
Unknown
Launch date (UTC)
1999-10-14 (27 years ago)
Launch vehicle
Unknown
Launch site
Taiyaun Space Center, China (TSC)
Object type
Payload
Rocket body
Debris
Shape & HBR
Unknown shape, 0.2 m
Radar Cross Section
Medium (>0.1 m² and <1 m²)

Expand to show TLE details & history
Last TLE update: 22 hours ago

TLE from 22 hours ago
0 CZ-4 DEB
1 26181U 99057BT  26257.87277207  .00000416  00000-0  87879-4 0  9994
2 26181  98.6599 123.8477 0013461 183.1266 191.6018 14.64852980410749
Epoch: 2026-09-14T20:56Z
TLE epoch observation values (Epoch: 2026-09-14T20:56:47.506Z)
Latitude
14.49808°
Longitude
173.558°
Altitude
689.106 km
Speed
7.508 km/s
True Right ascension
08h 06m 24s
True Declination
14° 24' 51"
Sunlit
Object was in daylight at epoch
Visualization orbit readout
Latitude
Unknown
Longitude
Unknown
Altitude
Unknown
Speed
Unknown
Apparent Right ascension
Unknown
Apparent Declination
Unknown
Sunlit
N/A
Visualization observer readout
Local Sidereal Time
11:41:50
Azimuth
Unknown
Elevation
Unknown
Doppler factor
Unknown
Orbital elements
Apogee altitude
684.138 km
Perigee altitude
665.15 km
Semi-major axis
7,052.781 km
Eccentricity
0.00135
Inclination
98.6599°
RAAN
123.8477°
Arg. of periapsis
183.1266°
True anomaly
191.57083°
Mean anomaly
191.6018°
Eccentric anomaly
191.58631°
Mean motion
3.6644 °/min
Orbital period
98.24 mins
BSTAR
0.000087879
Loading maneuver chart data...
Computing Atmospheric mass density...

Documentation

Showing up to 5 results
|